Regional Weather Roundup
Issued by NWS

Home | Current Version | Previous Version | Graphics & Text | Print | Product List | Glossary On
Versions: 1 2 3 4 5 6 7 8 9 10 11 12 13 14 15 16 17 18 19 20 21 22 23 24 25 26 27 28 29 30 31 32 33 34 35 36 37 38 39 40 41 42 43 44 45 46 47 48 49 50
000
ASUS45 KBOU 271807
RWRCO

WEATHER ROUNDUP FOR COLORADO
NATIONAL WEATHER SERVICE DENVER/BOULDER CO
1200 PM MDT WED MAY 27 2015

NOTE: "FAIR" INDICATES FEW OR NO CLOUDS BELOW 12000 FEET WITH NO
SIGNIFICANT WEATHER AND/OR OBSTRUCTIONS TO VISIBILITY.

COZ001>005-013-030-031-271900-
...NORTHWEST COLORADO...

CITY           SKY/WX    TMP DP  RH WIND       PRES   REMARKS
CRAIG          MOSUNNY   63  42  46 W8        30.16F
HAYDEN         MOSUNNY   59  39  47 NW5       30.17F
MEEKER         SUNNY     63  42  46 SW6       30.16F
MOUNT WERNER   NOT AVBL
STEAMBOAT SPGS CLOUDY    56  41  57 W3        30.20S
WALDEN         MOSUNNY   54  32  43 SW6       30.23S
$$

COZ006>008-011-271900-
...WEST CENTRAL VALLEYS...

CITY           SKY/WX    TMP DP  RH WIND       PRES   REMARKS
GRAND JUNCTION SUNNY     68  45  43 E5        30.11F
MONTROSE       MOSUNNY   67  43  41 NW7       30.16F
EAGLE          MOSUNNY   64  37  36 SW17G23   30.18F
RIFLE          SUNNY     63  42  46 W7        30.14F
DELTA          MOSUNNY   70  43  37 S6        30.13F
NUCLA          MOSUNNY   66  41  39 N3        30.19F
$$

COZ017>023-064>068-271900-
...SOUTHWEST COLORADO...

CITY           SKY/WX    TMP DP  RH WIND       PRES   REMARKS
DURANGO        PTSUNNY   66  39  37 CALM      30.21F
CORTEZ         MOSUNNY   71  39  31 SW10      30.15F
PAGOSA SPRINGS PTSUNNY   63  34  33 S6        30.27S
TELLURIDE      PTSUNNY   56  31  38 W7        30.31F
WOLF CREEK PAS NOT AVBL
$$

COZ009-010-012-014-032>034-037-058>063-271900-
...CENTRAL COLORADO...

CITY           SKY/WX    TMP DP  RH WIND       PRES   REMARKS
ASPEN          CLOUDY    58  37  45 N9        30.22S
BUENA VISTA    MOSUNNY   60  28  29 W9        30.23S
COPPER MTN     CLOUDY    43  28  56 W20G28    30.42R
BERTHOUD PASS  FAIR      34  28  80 NW21G37   30.43R WCI  22
COTTONWOOD PAS PTSUNNY   54  28  37 N7        30.32S
GUNNISON       MOSUNNY   61  37  41 SW12      30.25F
KREMMLING      PTSUNNY   59  30  33 SW16      30.21F
LEADVILLE      CLOUDY    51  28  41 NW15G22   30.30S
MONARCH PASS   MOSUNNY   39  28  65 W36G46    30.52R
SALIDA         MOSUNNY   68  28  22 W18       30.27F
SUNLIGHT       CLOUDY    45  36  70 CALM      30.40S
WILKERSON PASS CLOUDY    45  27  49 SW7       30.41S
$$

COZ069>075-271900-
...SAN LUIS VALLEY/SANGRE DE CRISTO MOUNTAINS...

CITY           SKY/WX    TMP DP  RH WIND       PRES   REMARKS
ALAMOSA        SUNNY     65  35  33 SW12      30.23F
LA VETA PASS   MOSUNNY  N/A N/A N/A MISG      30.38R
SAGUACHE       MOSUNNY   59  39  47 S9        30.26F
$$

COZ035-036-038>040-271900-
...NORTHERN COLORADO FRONT RANGE...

CITY           SKY/WX    TMP DP  RH WIND       PRES   REMARKS
DENVER INTL AP PTSUNNY   71  41  33 NE5       30.08F
DMNS CITY PARK   N/A     71  41  33 E6        30.07S
AURORA         PTSUNNY   70  44  39 N8        30.09S
FRONT RANGE AP PTSUNNY   70  46  43 E7        30.09F
ERIE MUNI ARPT PTSUNNY   70  46  43 SE5       30.07S
BOULDER MUN AP PTSUNNY   70  45  40 N5        30.07S
CENTENNIAL     PTSUNNY   69  37  30 CALM      30.09S
BROOMFIELD     PTSUNNY   70  45  40 E8        30.09F
FORT COLLINS   PTSUNNY   70  48  46 SE3       30.08F
LONGMONT       PTSUNNY   73  49  42 E6        30.08F
$$

COZ041-046-047-076>085-087-088-271900-
...PIKES PEAK/PALMER DIVIDE AND SOUTHERN FOOTHILLS...

CITY           SKY/WX    TMP DP  RH WIND       PRES   REMARKS
COLO. SPRINGS  MOSUNNY   70  38  31 SE9G21    30.12F
A. F. ACADEMY  MOSUNNY   66  41  40 SE10      30.12F
ELLICOTT       NOT AVBL
FALCON         MOSUNNY   68  32  27 SW8       30.17F
FORT CARSON    NOT AVBL
LIMON            N/A    N/A N/A N/A MISG      30.09F
MONUMENT HILL  MOSUNNY   63  39  42 E12       30.17S
TRINIDAD       MOSUNNY   75  41  29 NW9       30.12F
$$

COZ042>045-048>051-090-091-271900-
...NORTHEAST COLORADO...

CITY           SKY/WX    TMP DP  RH WIND       PRES   REMARKS
GREELEY ARPT   MOSUNNY   72  50  46 SE5       30.07F
AKRON          SUNNY     72  49  44 W3        30.06F
BURLINGTON     MOSUNNY   73  55  53 S16       30.08F
WRAY           PTSUNNY   74  58  56 SE17      30.05F
STERLING       SUNNY     72  54  53 S5        30.03F
HOLYOKE        PTSUNNY   73  55  53 SE12G17   30.05F
FORT MORGAN    SUNNY     70  49  45 CALM      30.06F
$$

COZ086-089-092>099-271900-
...SOUTHEAST COLORADO...

CITY           SKY/WX    TMP DP  RH WIND       PRES   REMARKS
PUEBLO         SUNNY     70  51  51 S6        30.07F
LA JUNTA       SUNNY     73  52  47 S6        30.06F
LAMAR          SUNNY     78  54  43 S8G18     30.04F
SPRINGFIELD      N/A     76  54  46 S17       30.08F
$$


USA.gov is the U.S. government's official web portal to all federal, state and local government web resources and services.